| time (UTC) | temp F | wind direction | speed MPH | gust MPH | rain 1hr in | rain 24hr in | rain mn in | humidity % | barometer mb |
| 20260503223636 | 59 | 241 | 14.0 | 21.0 | 0.00 | 0.00 | 0.00 | 58 | 1014.1 |
| 20260503223131 | 59 | 237 | 19.0 | 25.0 | 0.00 | 0.00 | 0.00 | 56 | 1014.2 |
| 20260503222629 | 59 | 238 | 19.0 | 24.0 | 0.00 | 0.00 | 0.00 | 53 | 1014.1 |
| 20260503222126 | 61 | 220 | 12.0 | 17.0 | 0.00 | 0.00 | 0.00 | 49 | 1014.0 |
| 20260503221625 | 61 | 244 | 12.0 | 17.0 | 0.00 | 0.00 | 0.00 | 46 | 1014.0 |
| 20260503221122 | 61 | 238 | 14.0 | 21.0 | 0.00 | 0.00 | 0.00 | 46 | 1014.1 |
| 20260503220619 | 61 | 252 | 14.0 | 21.0 | 0.00 | 0.00 | 0.00 | 45 | 1014.1 |
| 20260503220115 | 60 | 246 | 15.0 | 20.0 | 0.00 | 0.00 | 0.00 | 46 | 1014.0 |
| 20260503215612 | 60 | 248 | 17.0 | 20.0 | 0.00 | 0.00 | 0.00 | 44 | 1013.9 |
| 20260503215109 | 61 | 223 | 15.0 | 21.0 | 0.00 | 0.00 | 0.00 | 45 | 1014.2 |
| 20260503214608 | 61 | 228 | 14.0 | 16.0 | 0.00 | 0.00 | 0.00 | 45 | 1014.0 |
| 20260503214103 | 61 | 241 | 14.0 | 21.0 | 0.00 | 0.00 | 0.00 | 45 | 1014.2 |
| 20260503213602 | 61 | 222 | 15.0 | 27.0 | 0.00 | 0.00 | 0.00 | 45 | 1014.1 |
| 20260503213058 | 60 | 212 | 17.0 | 20.0 | 0.00 | 0.00 | 0.00 | 45 | 1014.2 |
| 20260503212556 | 61 | 230 | 13.0 | 18.0 | 0.00 | 0.00 | 0.00 | 46 | 1014.2 |
| 20260503212053 | 60 | 237 | 13.0 | 21.0 | 0.00 | 0.00 | 0.00 | 44 | 1014.1 |
| 20260503211550 | 60 | 212 | 13.0 | 22.0 | 0.00 | 0.00 | 0.00 | 48 | 1014.3 |
| 20260503211045 | 60 | 204 | 13.0 | 22.0 | 0.00 | 0.00 | 0.00 | 46 | 1014.3 |
| 20260503210543 | 61 | 225 | 11.0 | 15.0 | 0.00 | 0.00 | 0.00 | 46 | 1014.1 |
| 20260503210038 | 62 | 228 | 17.0 | 21.0 | 0.00 | 0.00 | 0.00 | 43 | 1014.4 |
| 20260503205535 | 61 | 243 | 14.0 | 23.0 | 0.00 | 0.00 | 0.00 | 45 | 1014.1 |
| 20260503205032 | 62 | 214 | 21.0 | 25.0 | 0.00 | 0.00 | 0.00 | 42 | 1014.3 |
| 20260503204529 | 62 | 248 | 16.0 | 23.0 | 0.00 | 0.00 | 0.00 | 45 | 1014.4 |
| 20260503204026 | 61 | 215 | 17.0 | 18.0 | 0.00 | 0.00 | 0.00 | 43 | 1014.4 |
| 20260503203523 | 61 | 229 | 20.0 | 24.0 | 0.00 | 0.00 | 0.00 | 43 | 1014.6 |
| 20260503203020 | 62 | 222 | 17.0 | 25.0 | 0.00 | 0.00 | 0.00 | 44 | 1014.5 |
| 20260503202518 | 62 | 229 | 18.0 | 24.0 | 0.00 | 0.00 | 0.00 | 44 | 1014.6 |
| 20260503202015 | 62 | 218 | 14.0 | 22.0 | 0.00 | 0.00 | 0.00 | 44 | 1014.5 |
| 20260503201514 | 62 | 243 | 20.0 | 25.0 | 0.00 | 0.00 | 0.00 | 42 | 1014.7 |
| 20260503201010 | 62 | 230 | 18.0 | 22.0 | 0.00 | 0.00 | 0.00 | 43 | 1014.7 |
| 20260503200506 | 62 | 231 | 14.0 | 20.0 | 0.00 | 0.00 | 0.00 | 43 | 1014.6 |
| 20260503200003 | 62 | 230 | 14.0 | 20.0 | 0.00 | 0.00 | 0.00 | 43 | 1014.8 |
| 20260503195500 | 62 | 236 | 11.0 | 18.0 | 0.00 | 0.00 | 0.00 | 45 | 1014.7 |
| 20260503194957 | 61 | 221 | 16.0 | 23.0 | 0.00 | 0.00 | 0.00 | 44 | 1014.8 |
| 20260503194455 | 61 | 209 | 17.0 | 22.0 | 0.00 | 0.00 | 0.00 | 44 | 1014.8 |
| 20260503193949 | 61 | 233 | 16.0 | 23.0 | 0.00 | 0.00 | 0.00 | 44 | 1015.0 |
| 20260503193445 | 61 | 234 | 14.0 | 22.0 | 0.00 | 0.00 | 0.00 | 46 | 1015.1 |
| 20260503192941 | 61 | 237 | 18.0 | 24.0 | 0.00 | 0.00 | 0.00 | 44 | 1014.8 |
| 20260503192437 | 61 | 235 | 16.0 | 18.0 | 0.00 | 0.00 | 0.00 | 44 | 1015.2 |
| 20260503191933 | 61 | 239 | 14.0 | 20.0 | 0.00 | 0.00 | 0.00 | 45 | 1015.2 |
| 20260503191431 | 62 | 239 | 14.0 | 25.0 | 0.00 | 0.00 | 0.00 | 48 | 1015.4 |
| 20260503190927 | 62 | 217 | 17.0 | 21.0 | 0.00 | 0.00 | 0.00 | 47 | 1015.5 |
| 20260503190425 | 62 | 241 | 14.0 | 18.0 | 0.00 | 0.00 | 0.00 | 44 | 1015.4 |
| 20260503185921 | 62 | 220 | 19.0 | 22.0 | 0.00 | 0.00 | 0.00 | 45 | 1015.5 |
| 20260503185418 | 61 | 227 | 18.0 | 22.0 | 0.00 | 0.00 | 0.00 | 46 | 1015.5 |
| 20260503184917 | 61 | 211 | 18.0 | 22.0 | 0.00 | 0.00 | 0.00 | 45 | 1015.8 |
| 20260503184414 | 61 | 238 | 13.0 | 20.0 | 0.00 | 0.00 | 0.00 | 48 | 1016.0 |
| 20260503183910 | 61 | 225 | 19.0 | 23.0 | 0.00 | 0.00 | 0.00 | 44 | 1015.9 |
| 20260503183407 | 61 | 211 | 12.0 | 18.0 | 0.00 | 0.00 | 0.00 | 42 | 1015.9 |
| 20260503182904 | 61 | 232 | 13.0 | 22.0 | 0.00 | 0.00 | 0.00 | 48 | 1016.0 |
| 20260503182403 | 61 | 241 | 17.0 | 18.0 | 0.00 | 0.00 | 0.00 | 46 | 1016.2 |
| 20260503181859 | 62 | 255 | 13.0 | 18.0 | 0.00 | 0.00 | 0.00 | 46 | 1016.0 |
| 20260503181356 | 60 | 197 | 14.0 | 17.0 | 0.00 | 0.00 | 0.00 | 46 | 1016.3 |
| 20260503180853 | 60 | 244 | 14.0 | 20.0 | 0.00 | 0.00 | 0.00 | 46 | 1016.2 |
| 20260503180351 | 60 | 234 | 14.0 | 21.0 | 0.00 | 0.00 | 0.00 | 44 | 1016.4 |
| 20260503175847 | 62 | 246 | 15.0 | 22.0 | 0.00 | 0.00 | 0.00 | 46 | 1016.4 |
| 20260503175345 | 61 | 204 | 14.0 | 25.0 | 0.00 | 0.00 | 0.00 | 47 | 1016.3 |
| 20260503174840 | 60 | 230 | 13.0 | 22.0 | 0.00 | 0.00 | 0.00 | 47 | 1016.5 |
| 20260503174339 | 61 | 231 | 13.0 | 18.0 | 0.00 | 0.00 | 0.00 | 46 | 1016.5 |
| 20260503173834 | 61 | 248 | 14.0 | 22.0 | 0.00 | 0.00 | 0.00 | 47 | 1016.7 |
| 20260503173331 | 61 | 246 | 19.0 | 22.0 | 0.00 | 0.00 | 0.00 | 42 | 1016.6 |
| 20260503172827 | 61 | 192 | 12.0 | 18.0 | 0.00 | 0.00 | 0.00 | 46 | 1016.6 |
| 20260503172325 | 61 | 242 | 12.0 | 21.0 | 0.00 | 0.00 | 0.00 | 49 | 1016.8 |
| 20260503171821 | 60 | 252 | 17.0 | 23.0 | 0.00 | 0.00 | 0.00 | 46 | 1016.9 |
| 20260503171318 | 60 | 224 | 15.0 | 21.0 | 0.00 | 0.00 | 0.00 | 48 | 1016.8 |
| 20260503170815 | 61 | 244 | 14.0 | 18.0 | 0.00 | 0.00 | 0.00 | 49 | 1016.9 |
| 20260503170312 | 60 | 233 | 15.0 | 18.0 | 0.00 | 0.00 | 0.00 | 47 | 1016.9 |
| 20260503150704 | 55 | 242 | 12.0 | 14.0 | 0.00 | 0.00 | 0.00 | 56 | 1018.1 |
| 20260503150200 | 54 | 231 | 9.0 | 13.0 | 0.00 | 0.00 | 0.00 | 59 | 1018.2 |
| 20260503140124 | 50 | 231 | 13.0 | 21.0 | 0.00 | 0.00 | 0.00 | 62 | 1018.6 |
| 20260503131054 | 47 | 235 | 10.0 | 13.0 | 0.00 | 0.00 | 0.00 | 64 | 1018.8 |
| 20260503130551 | 47 | 231 | 9.0 | 14.0 | 0.00 | 0.00 | 0.00 | 66 | 1018.7 |
| 20260503110442 | 34 | 213 | 5.0 | 6.0 | 0.00 | 0.00 | 0.00 | 83 | 1018.3 |
| 20260503090333 | 33 | 216 | 2.0 | 2.0 | 0.00 | 0.00 | 0.00 | 85 | 1018.8 |
| 20260503081300 | 33 | 214 | 2.0 | 2.0 | 0.00 | 0.00 | 0.00 | 87 | 1018.9 |
| 20260503080756 | 33 | 217 | 0.0 | 1.0 | 0.00 | 0.00 | 0.00 | 86 | 1018.9 |
| 20260503080254 | 33 | 217 | 1.0 | 2.0 | 0.00 | 0.00 | 0.00 | 86 | 1018.8 |
| 20260503072730 | 33 | 214 | 1.0 | 1.0 | 0.00 | 0.00 | 0.00 | 85 | 1019.0 |
| 20260503072226 | 34 | 217 | 1.0 | 1.0 | 0.00 | 0.00 | 0.00 | 85 | 1018.9 |
| 20260503071723 | 34 | 215 | 1.0 | 2.0 | 0.00 | 0.00 | 0.00 | 85 | 1019.0 |
| 20260503071220 | 34 | 215 | 1.0 | 1.0 | 0.00 | 0.00 | 0.00 | 85 | 1019.1 |
| 20260503070717 | 34 | 214 | 1.0 | 1.0 | 0.00 | 0.00 | 0.00 | 84 | 1019.0 |
| 20260503070215 | 34 | 211 | 1.0 | 1.0 | 0.00 | 0.00 | 0.00 | 84 | 1019.1 |
| 20260503060139 | 35 | 217 | 1.0 | 1.0 | 0.00 | 0.00 | 0.00 | 83 | 1019.3 |
| 20260503054626 | 35 | 214 | 1.0 | 2.0 | 0.00 | 0.00 | 0.00 | 82 | 1019.4 |
| 20260503054123 | 35 | 216 | 1.0 | 1.0 | 0.00 | 0.00 | 0.00 | 83 | 1019.3 |
| 20260503053621 | 35 | 216 | 1.0 | 1.0 | 0.00 | 0.00 | 0.00 | 83 | 1019.3 |
| 20260503053120 | 35 | 212 | 1.0 | 2.0 | 0.00 | 0.00 | 0.00 | 83 | 1019.3 |
| 20260503052616 | 35 | 209 | 1.0 | 2.0 | 0.00 | 0.00 | 0.00 | 82 | 1019.5 |
| 20260503052112 | 36 | 209 | 1.0 | 1.0 | 0.00 | 0.00 | 0.00 | 81 | 1019.5 |
| 20260503051608 | 36 | 213 | 1.0 | 1.0 | 0.00 | 0.00 | 0.00 | 81 | 1019.5 |
| 20260503051106 | 36 | 215 | 1.0 | 1.0 | 0.00 | 0.00 | 0.00 | 81 | 1019.6 |
| 20260503050602 | 36 | 213 | 1.0 | 1.0 | 0.00 | 0.00 | 0.00 | 81 | 1019.6 |
| 20260503050059 | 37 | 212 | 1.0 | 2.0 | 0.00 | 0.00 | 0.00 | 81 | 1019.4 |
| 20260503045556 | 36 | 212 | 2.0 | 2.0 | 0.00 | 0.00 | 0.00 | 81 | 1019.5 |
| 20260503045053 | 37 | 217 | 2.0 | 2.0 | 0.00 | 0.00 | 0.00 | 80 | 1019.7 |
| 20260503044549 | 37 | 213 | 2.0 | 2.0 | 0.00 | 0.00 | 0.00 | 81 | 1019.5 |
| 20260503044047 | 37 | 213 | 1.0 | 2.0 | 0.00 | 0.00 | 0.00 | 81 | 1019.6 |
| 20260503043543 | 36 | 214 | 1.0 | 2.0 | 0.00 | 0.00 | 0.00 | 83 | 1019.4 |
| 20260503043040 | 36 | 214 | 1.0 | 1.0 | 0.00 | 0.00 | 0.00 | 83 | 1019.5 |
| 20260503042537 | 36 | 218 | 1.0 | 1.0 | 0.00 | 0.00 | 0.00 | 81 | 1019.6 |
| 20260503042033 | 37 | 215 | 1.0 | 2.0 | 0.00 | 0.00 | 0.00 | 80 | 1019.5 |
| 20260503041530 | 36 | 214 | 0.0 | 1.0 | 0.00 | 0.00 | 0.00 | 82 | 1019.5 |
| 20260503041028 | 36 | 217 | 1.0 | 1.0 | 0.00 | 0.00 | 0.00 | 82 | 1019.5 |
| 20260503040525 | 37 | 211 | 1.0 | 2.0 | 0.00 | 0.00 | 0.00 | 80 | 1019.6 |
| 20260503040022 | 38 | 214 | 2.0 | 2.0 | 0.00 | 0.00 | 0.00 | 77 | 1019.6 |
| 20260503035519 | 39 | 211 | 3.0 | 3.0 | 0.00 | 0.00 | 0.00 | 76 | 1019.7 |
| 20260503035017 | 38 | 207 | 3.0 | 3.0 | 0.00 | 0.00 | 0.00 | 77 | 1019.7 |
| 20260503034514 | 38 | 209 | 2.0 | 2.0 | 0.00 | 0.00 | 0.00 | 78 | 1019.7 |
| 20260503034010 | 40 | 210 | 2.0 | 2.0 | 0.00 | 0.00 | 0.00 | 76 | 1019.7 |
| 20260503033508 | 41 | 210 | 3.0 | 3.0 | 0.00 | 0.00 | 0.00 | 73 | 1019.6 |
| 20260503033006 | 41 | 208 | 2.0 | 2.0 | 0.00 | 0.00 | 0.00 | 74 | 1019.7 |
| 20260503032504 | 41 | 202 | 1.0 | 2.0 | 0.00 | 0.00 | 0.00 | 72 | 1019.7 |
| 20260503032002 | 41 | 204 | 1.0 | 1.0 | 0.00 | 0.00 | 0.00 | 72 | 1019.7 |
| 20260503031459 | 41 | 202 | 1.0 | 1.0 | 0.00 | 0.00 | 0.00 | 72 | 1019.7 |
| 20260503030955 | 41 | 202 | 1.0 | 1.0 | 0.00 | 0.00 | 0.00 | 75 | 1019.4 |
| 20260503030452 | 41 | 205 | 1.0 | 1.0 | 0.00 | 0.00 | 0.00 | 77 | 1019.7 |
| 20260503025949 | 41 | 202 | 1.0 | 2.0 | 0.00 | 0.00 | 0.00 | 77 | 1019.9 |
| 20260503025446 | 41 | 208 | 2.0 | 2.0 | 0.00 | 0.00 | 0.00 | 76 | 1019.8 |
| 20260503024943 | 42 | 211 | 2.0 | 2.0 | 0.00 | 0.00 | 0.00 | 77 | 1019.9 |
| 20260503024440 | 42 | 210 | 2.0 | 2.0 | 0.00 | 0.00 | 0.00 | 76 | 1019.7 |
| 20260503023937 | 42 | 212 | 2.0 | 2.0 | 0.00 | 0.00 | 0.00 | 79 | 1019.9 |
| 20260503023434 | 42 | 208 | 2.0 | 2.0 | 0.00 | 0.00 | 0.00 | 78 | 1019.7 |
| 20260503022931 | 43 | 206 | 1.0 | 1.0 | 0.00 | 0.00 | 0.00 | 78 | 1019.9 |
| 20260503022426 | 43 | 208 | 2.0 | 2.0 | 0.00 | 0.00 | 0.00 | 72 | 1019.9 |
| 20260503021922 | 44 | 208 | 1.0 | 2.0 | 0.00 | 0.00 | 0.00 | 68 | 1019.9 |
| 20260503021418 | 44 | 203 | 1.0 | 1.0 | 0.00 | 0.00 | 0.00 | 65 | 1019.9 |
| 20260503020916 | 44 | 204 | 1.0 | 2.0 | 0.00 | 0.00 | 0.00 | 66 | 1019.8 |
| 20260503020414 | 44 | 205 | 1.0 | 1.0 | 0.00 | 0.00 | 0.00 | 64 | 1019.9 |
| 20260503015909 | 44 | 201 | 0.0 | 0.0 | 0.00 | 0.00 | 0.00 | 64 | 1019.9 |
| 20260503015407 | 44 | 200 | 0.0 | 0.0 | 0.00 | 0.00 | 0.00 | 64 | 1019.9 |
| 20260503014902 | 44 | 208 | 1.0 | 1.0 | 0.00 | 0.00 | 0.00 | 66 | 1019.5 |
| 20260503014400 | 44 | 207 | 1.0 | 1.0 | 0.00 | 0.00 | 0.00 | 67 | 1019.7 |
| 20260503013858 | 44 | 205 | 1.0 | 1.0 | 0.00 | 0.00 | 0.00 | 67 | 1019.8 |
| 20260503013354 | 44 | 204 | 2.0 | 2.0 | 0.00 | 0.00 | 0.00 | 69 | 1019.7 |
| 20260503012851 | 44 | 205 | 1.0 | 2.0 | 0.00 | 0.00 | 0.00 | 67 | 1019.7 |
| 20260503012349 | 44 | 204 | 1.0 | 1.0 | 0.00 | 0.00 | 0.00 | 67 | 1019.7 |
| 20260503011846 | 44 | 205 | 1.0 | 2.0 | 0.00 | 0.00 | 0.00 | 70 | 1019.8 |
| 20260503011343 | 44 | 204 | 1.0 | 2.0 | 0.00 | 0.00 | 0.00 | 70 | 1019.8 |
| 20260503010839 | 44 | 207 | 1.0 | 1.0 | 0.00 | 0.00 | 0.00 | 67 | 1019.8 |
| 20260503010336 | 44 | 209 | 1.0 | 1.0 | 0.00 | 0.00 | 0.00 | 66 | 1019.7 |
| 20260503005833 | 45 | 217 | 1.0 | 1.0 | 0.00 | 0.00 | 0.00 | 62 | 1019.7 |
| 20260503005331 | 45 | 217 | 0.0 | 1.0 | 0.00 | 0.00 | 0.00 | 66 | 1019.7 |
| 20260503004826 | 44 | 218 | 1.0 | 1.0 | 0.00 | 0.00 | 0.00 | 65 | 1019.6 |
| 20260503004325 | 44 | 217 | 1.0 | 1.0 | 0.00 | 0.00 | 0.00 | 67 | 1019.5 |
| 20260503003822 | 44 | 213 | 1.0 | 1.0 | 0.00 | 0.00 | 0.00 | 71 | 1019.6 |
| 20260503003318 | 45 | 217 | 0.0 | 0.0 | 0.00 | 0.00 | 0.00 | 66 | 1019.6 |
| 20260503002815 | 45 | 216 | 0.0 | 0.0 | 0.00 | 0.00 | 0.00 | 65 | 1019.6 |
| 20260503002312 | 45 | 226 | 0.0 | 0.0 | 0.00 | 0.00 | 0.00 | 62 | 1019.7 |
| 20260503001809 | 45 | 232 | 1.0 | 1.0 | 0.00 | 0.00 | 0.00 | 58 | 1019.7 |
| 20260503001305 | 46 | 228 | 1.0 | 1.0 | 0.00 | 0.00 | 0.00 | 63 | 1019.5 |
| 20260503000803 | 46 | 236 | 1.0 | 1.0 | 0.00 | 0.00 | 0.00 | 59 | 1019.5 |
| 20260503000300 | 46 | 236 | 1.0 | 1.0 | 0.00 | 0.00 | 0.00 | 58 | 1019.4 |
| 20260502235757 | 46 | 248 | 2.0 | 2.0 | 0.00 | 0.00 | 0.00 | 58 | 1019.5 |
| 20260502235255 | 46 | 249 | 1.0 | 1.0 | 0.00 | 0.00 | 0.00 | 57 | 1019.5 |
| 20260502234751 | 46 | 243 | 1.0 | 1.0 | 0.00 | 0.00 | 0.00 | 57 | 1019.2 |
| 20260502234248 | 46 | 240 | 1.0 | 1.0 | 0.00 | 0.00 | 0.00 | 57 | 1019.5 |
| 20260502233744 | 46 | 240 | 1.0 | 3.0 | 0.00 | 0.00 | 0.00 | 55 | 1019.5 |
| 20260502233241 | 47 | 247 | 2.0 | 3.0 | 0.00 | 0.00 | 0.00 | 53 | 1019.5 |
| 20260502232737 | 47 | 256 | 2.0 | 2.0 | 0.00 | 0.00 | 0.00 | 53 | 1019.4 |
| 20260502232234 | 47 | 252 | 3.0 | 5.0 | 0.00 | 0.00 | 0.00 | 51 | 1019.5 |
| 20260502231730 | 47 | 259 | 4.0 | 5.0 | 0.00 | 0.00 | 0.00 | 51 | 1019.3 |
| 20260502231228 | 47 | 249 | 5.0 | 5.0 | 0.00 | 0.00 | 0.00 | 51 | 1019.5 |
| 20260502230727 | 47 | 256 | 4.0 | 6.0 | 0.00 | 0.00 | 0.00 | 51 | 1019.5 |
| 20260502230225 | 48 | 286 | 3.0 | 6.0 | 0.00 | 0.00 | 0.00 | 51 | 1019.8 |
| 20260502225720 | 47 | 245 | 4.0 | 5.0 | 0.00 | 0.00 | 0.00 | 48 | 1019.5 |
| 20260502225218 | 49 | 274 | 3.0 | 5.0 | 0.00 | 0.00 | 0.00 | 50 | 1019.8 |
| 20260502224714 | 48 | 269 | 3.0 | 5.0 | 0.00 | 0.00 | 0.00 | 53 | 1019.5 |
| 20260502224211 | 47 | 250 | 5.0 | 7.0 | 0.00 | 0.00 | 0.00 | 51 | 1019.5 |